Home   Weather   Schwerin   Past weeks

Flag for Germany Past Weather in Schwerin, Mecklenburg-Western Pomerania, Germany — Yesterday and Last 2 Weeks

Now
45 °F

Sprinkles. Scattered clouds.


Feels Like: 39 °F
Forecast: 34 / 50 °F
Wind: 10 mph from Northwest

Location: Luebeck-Blankensee

Current Time: Apr 23, 2017 at 2:24:32 pm

Latest Report: Apr 23, 2017 at 1:50 pm


Visibility: N/A

Pressure: 30.09 "Hg

Humidity: 66%

Dew Point: 34 °F

Location of SchwerinLocation

Past Weather in Schwerin — Graph

°F

Schwerin Temperature Yesterday

Maximum temperature yesterday: 48 °F (at 12:20 pm)
Minimum temperature yesterday: 39 °F (at 6:20 am)
Average temperature yesterday: 45 °F

High & Low Weather Summary for the Past Weeks

 TemperatureHumidityPressure
High66 °F (Apr 9, 5:20 pm)100% (Apr 9, 7:20 am)30.60 "Hg (Apr 9, 7:20 am)
Low27 °F (Apr 20, 6:50 am)39% (Apr 19, 3:20 pm)29.68 "Hg (Apr 15, 9:50 am)
Average47 °F71%30.09 "Hg
* Reported Apr 8 1:20 pm — Apr 23 1:20 pm, Schwerin, Weather by CustomWeather, © 2017

Note: Actual official high and low records may vary slightly from our data, if they occured in-between our weather recording intervals... More about our weather records

Advertising

Schwerin Weather History for the Previous 24 Hours

Scroll right to see more
 ConditionsComfort  
Time TempWeatherWind HumidityBarometerVisibility
1:20 pm
Sun, Apr 23
41 °FScattered showers. Scattered clouds.8 mph76%30.09 "HgN/A
12:50 pm45 °FScattered showers. Partly sunny.14 mph76%30.09 "HgN/A
12:20 pm45 °FScattered showers. Partly sunny.14 mph61%30.09 "HgN/A
11:50 am39 °FScattered showers. Partly sunny.6 mph87%30.09 "HgN/A
11:20 am46 °FScattered showers. Broken clouds.13 mph66%30.09 "HgN/A
10:50 am45 °FPartly sunny.12 mph71%30.09 "HgN/A
10:20 am43 °FBroken clouds.7 mph81%30.09 "HgN/A
9:50 am43 °FBroken clouds.8 mph76%30.09 "HgN/A
9:20 am43 °FBroken clouds.9 mph76%30.09 "HgN/A
8:50 am43 °FBroken clouds.9 mph76%30.09 "HgN/A
8:20 am41 °FBroken clouds.9 mph81%30.09 "HgN/A
7:50 am41 °FPassing clouds.7 mph81%30.07 "HgN/A
7:20 am41 °FBroken clouds.7 mph81%30.07 "HgN/A
6:20 am39 °FPartly sunny.6 mph87%30.07 "HgN/A
8:20 pm
Sat, Apr 22
45 °FPassing clouds.8 mph66%30.04 "HgN/A
7:50 pm45 °FScattered clouds.10 mph71%30.01 "HgN/A
7:20 pm46 °FScattered clouds.14 mph71%30.01 "HgN/A
6:50 pm46 °FScattered clouds.12 mph71%30.01 "HgN/A
6:20 pm46 °FScattered clouds.9 mph71%30.04 "HgN/A
5:50 pm46 °FScattered clouds.12 mph71%30.04 "HgN/A
5:20 pm46 °FScattered showers. Scattered clouds.14 mph71%30.04 "HgN/A
4:50 pm48 °FScattered showers. Scattered clouds.14 mph71%30.04 "HgN/A
4:20 pm46 °FScattered showers. Partly sunny.12 mph76%30.04 "HgN/A
3:50 pm48 °FScattered showers. Partly sunny.10 mph71%30.04 "HgN/A
3:20 pm46 °FPartly sunny.10 mph82%30.04 "HgN/A
2:50 pm48 °FSprinkles. Partly sunny.10 mph76%30.04 "HgN/A
2:20 pm43 °FScattered showers. Partly sunny.8 mph81%30.07 "HgN/A
2:05 pm41 °FHail. Partly sunny.10 mph76%30.07 "Hg4 mi
Weather by CustomWeather, © 2017

See weather overviewHow to use our weather pages